| time (UTC) | temp C | wind direction | speed KPH | gust KPH | rain 1hr cm | rain 24hr cm | rain mn cm | humidity % | barometer mb |
| 20260507065537 | 11 | 350 | 9.7 | 12.9 | 0.00 | 0.00 | 0.00 | 50 | 1015.6 |
| 20260507063336 | 10 | 272 | 8.0 | 11.3 | 0.00 | 0.00 | 0.00 | 53 | 1015.7 |
| 20260507061136 | 10 | 273 | 8.0 | 11.3 | 0.00 | 0.00 | 0.00 | 53 | 1015.5 |
| 20260507060035 | 10 | 232 | 8.0 | 12.9 | 0.00 | 0.00 | 0.00 | 53 | 1015.3 |
| 20260507054935 | 9 | 213 | 6.4 | 6.4 | 0.00 | 0.00 | 0.00 | 56 | 1015.2 |
| 20260507052735 | 8 | 212 | 4.8 | 8.0 | 0.00 | 0.00 | 0.00 | 61 | 1015.0 |
| 20260507050535 | 6 | 138 | 3.2 | 4.8 | 0.00 | 0.00 | 0.00 | 82 | 1015.0 |
| 20260507045435 | 5 | 146 | 1.6 | 3.2 | 0.00 | 0.00 | 0.00 | 83 | 1014.9 |
| 20260507044335 | 2 | 144 | 1.6 | 3.2 | 0.00 | 0.00 | 0.00 | 82 | 1014.9 |
| 20260507043235 | 2 | 135 | 0.0 | 3.2 | 0.00 | 0.00 | 0.00 | 81 | 1014.9 |
| 20260507042135 | 1 | 0 | 0.0 | 0.0 | 0.00 | 0.00 | 0.00 | 81 | 1014.7 |
| 20260507041035 | 1 | 0 | 0.0 | 0.0 | 0.00 | 0.00 | 0.00 | 81 | 1014.6 |
| 20260507035935 | 1 | 0 | 0.0 | 0.0 | 0.00 | 0.00 | 0.00 | 80 | 1014.8 |
| 20260507034835 | 1 | 0 | 0.0 | 0.0 | 0.00 | 0.00 | 0.00 | 80 | 1014.5 |
| 20260507033735 | 1 | 0 | 0.0 | 0.0 | 0.00 | 0.00 | 0.00 | 80 | 1014.4 |
| 20260507031535 | 1 | 135 | 0.0 | 3.2 | 0.00 | 0.00 | 0.00 | 78 | 1014.5 |
| 20260507030436 | 1 | 0 | 0.0 | 0.0 | 0.00 | 0.00 | 0.00 | 77 | 1014.3 |
| 20260507025335 | 1 | 0 | 0.0 | 0.0 | 0.00 | 0.00 | 0.00 | 77 | 1014.2 |
| 20260507024234 | 1 | 0 | 0.0 | 0.0 | 0.00 | 0.00 | 0.00 | 76 | 1014.1 |
| 20260507023135 | 1 | 0 | 0.0 | 0.0 | 0.00 | 0.00 | 0.00 | 75 | 1014.1 |
| 20260507022034 | 1 | 135 | 0.0 | 1.6 | 0.00 | 0.00 | 0.00 | 75 | 1014.0 |
| 20260507020935 | 1 | 0 | 0.0 | 0.0 | 0.00 | 0.00 | 0.00 | 74 | 1014.1 |
| 20260507015834 | 2 | 0 | 0.0 | 0.0 | 0.00 | 0.00 | 0.00 | 74 | 1014.1 |
| 20260507014734 | 2 | 135 | 1.6 | 4.8 | 0.00 | 0.00 | 0.00 | 73 | 1014.1 |
| 20260507013634 | 2 | 135 | 1.6 | 3.2 | 0.00 | 0.00 | 0.00 | 72 | 1014.0 |
| 20260507012534 | 2 | 0 | 0.0 | 0.0 | 0.00 | 0.00 | 0.00 | 71 | 1013.9 |
| 20260507011435 | 2 | 0 | 0.0 | 0.0 | 0.00 | 0.00 | 0.00 | 71 | 1014.0 |
| 20260507010334 | 3 | 0 | 0.0 | 0.0 | 0.00 | 0.00 | 0.00 | 70 | 1014.0 |
| 20260507005234 | 3 | 0 | 0.0 | 0.0 | 0.00 | 0.00 | 0.00 | 69 | 1013.8 |
| 20260507004134 | 3 | 0 | 0.0 | 0.0 | 0.00 | 0.00 | 0.00 | 68 | 1013.7 |
| 20260507003034 | 3 | 0 | 0.0 | 0.0 | 0.00 | 0.00 | 0.00 | 67 | 1013.8 |
| 20260507001934 | 3 | 181 | 0.0 | 1.6 | 0.00 | 0.00 | 0.00 | 66 | 1013.6 |
| 20260507000835 | 4 | 181 | 0.0 | 3.2 | 0.00 | 0.00 | 0.00 | 65 | 1013.7 |
| 20260506235734 | 4 | 181 | 1.6 | 3.2 | 0.00 | 0.00 | 0.00 | 64 | 1013.8 |
| 20260506234635 | 4 | 181 | 0.0 | 1.6 | 0.00 | 0.00 | 0.00 | 63 | 1013.7 |
| 20260506233533 | 5 | 181 | 0.0 | 3.2 | 0.00 | 0.00 | 0.00 | 62 | 1013.7 |
| 20260506232434 | 5 | 181 | 1.6 | 3.2 | 0.00 | 0.00 | 0.00 | 61 | 1013.8 |
| 20260506230234 | 6 | 124 | 1.6 | 3.2 | 0.00 | 0.00 | 0.00 | 60 | 1013.9 |
| 20260506225133 | 6 | 131 | 3.2 | 4.8 | 0.00 | 0.00 | 0.00 | 60 | 1013.8 |
| 20260506224033 | 6 | 119 | 1.6 | 6.4 | 0.00 | 0.00 | 0.00 | 60 | 1013.6 |
| 20260506222933 | 6 | 165 | 1.6 | 4.8 | 0.00 | 0.00 | 0.00 | 59 | 1013.8 |
| 20260506221834 | 6 | 164 | 3.2 | 4.8 | 0.00 | 0.00 | 0.00 | 58 | 1013.6 |
| 20260506213433 | 7 | 167 | 1.6 | 3.2 | 0.00 | 0.00 | 0.00 | 60 | 1013.4 |
| 20260506211233 | 7 | 135 | 1.6 | 3.2 | 0.00 | 0.00 | 0.00 | 54 | 1013.2 |
| 20260506210135 | 7 | 98 | 1.6 | 4.8 | 0.00 | 0.00 | 0.00 | 53 | 1013.1 |
| 20260506203934 | 7 | 128 | 1.6 | 4.8 | 0.00 | 0.00 | 0.00 | 51 | 1013.0 |
| 20260506202833 | 7 | 154 | 3.2 | 4.8 | 0.00 | 0.00 | 0.00 | 50 | 1013.0 |
| 20260506201733 | 8 | 181 | 0.0 | 3.2 | 0.00 | 0.00 | 0.00 | 50 | 1013.0 |
| 20260506200633 | 8 | 181 | 0.0 | 3.2 | 0.00 | 0.00 | 0.00 | 49 | 1013.0 |
| 20260506193334 | 8 | 125 | 1.6 | 3.2 | 0.00 | 0.00 | 0.00 | 43 | 1012.9 |
| 20260506191133 | 9 | 139 | 4.8 | 6.4 | 0.00 | 0.00 | 0.00 | 41 | 1012.5 |
| 20260506190033 | 10 | 142 | 3.2 | 6.4 | 0.00 | 0.00 | 0.00 | 42 | 1012.4 |
| 20260506184934 | 10 | 149 | 4.8 | 8.0 | 0.00 | 0.00 | 0.00 | 41 | 1012.3 |
| 20260506183832 | 10 | 132 | 4.8 | 6.4 | 0.00 | 0.00 | 0.00 | 41 | 1012.2 |
| 20260506182733 | 10 | 152 | 4.8 | 6.4 | 0.00 | 0.00 | 0.00 | 41 | 1012.1 |
| 20260506181632 | 11 | 151 | 4.8 | 6.4 | 0.00 | 0.00 | 0.00 | 41 | 1011.9 |
| 20260506175432 | 11 | 127 | 3.2 | 4.8 | 0.00 | 0.00 | 0.00 | 42 | 1011.9 |
| 20260506174333 | 11 | 162 | 3.2 | 9.7 | 0.00 | 0.00 | 0.00 | 41 | 1011.8 |
| 20260506173232 | 11 | 135 | 6.4 | 9.7 | 0.00 | 0.00 | 0.00 | 40 | 1011.7 |
| 20260506172132 | 11 | 141 | 3.2 | 4.8 | 0.00 | 0.00 | 0.00 | 40 | 1011.8 |
| 20260506165932 | 12 | 135 | 4.8 | 8.0 | 0.00 | 0.00 | 0.00 | 40 | 1011.7 |
| 20260506163731 | 12 | 140 | 8.0 | 11.3 | 0.00 | 0.00 | 0.00 | 39 | 1011.6 |
| 20260506162632 | 12 | 111 | 4.8 | 9.7 | 0.00 | 0.00 | 0.00 | 36 | 1011.6 |
| 20260506161531 | 12 | 152 | 6.4 | 12.9 | 0.00 | 0.00 | 0.00 | 37 | 1011.6 |
| 20260506154233 | 13 | 151 | 8.0 | 11.3 | 0.00 | 0.00 | 0.00 | 36 | 1011.5 |
| 20260506153132 | 13 | 125 | 6.4 | 11.3 | 0.00 | 0.00 | 0.00 | 34 | 1011.5 |
| 20260506152031 | 13 | 106 | 8.0 | 11.3 | 0.00 | 0.00 | 0.00 | 34 | 1011.6 |
| 20260506150931 | 13 | 122 | 8.0 | 11.3 | 0.00 | 0.00 | 0.00 | 34 | 1011.5 |
| 20260506144731 | 13 | 147 | 8.0 | 12.9 | 0.00 | 0.00 | 0.00 | 37 | 1011.5 |
| 20260506143632 | 13 | 149 | 8.0 | 11.3 | 0.00 | 0.00 | 0.00 | 38 | 1011.5 |
| 20260506142531 | 13 | 117 | 8.0 | 16.1 | 0.00 | 0.00 | 0.00 | 37 | 1011.5 |
| 20260506141431 | 13 | 146 | 9.7 | 14.5 | 0.00 | 0.00 | 0.00 | 37 | 1011.6 |
| 20260506134131 | 14 | 151 | 8.0 | 11.3 | 0.00 | 0.00 | 0.00 | 35 | 1011.5 |
| 20260506133031 | 15 | 140 | 8.0 | 12.9 | 0.00 | 0.00 | 0.00 | 33 | 1011.4 |
| 20260506131930 | 15 | 158 | 6.4 | 9.7 | 0.00 | 0.00 | 0.00 | 33 | 1011.5 |
| 20260506130830 | 15 | 158 | 6.4 | 14.5 | 0.00 | 0.00 | 0.00 | 34 | 1011.4 |
| 20260506125730 | 14 | 123 | 9.7 | 12.9 | 0.00 | 0.00 | 0.00 | 34 | 1011.5 |
| 20260506124630 | 15 | 143 | 9.7 | 12.9 | 0.00 | 0.00 | 0.00 | 34 | 1011.4 |
| 20260506123530 | 15 | 112 | 9.7 | 16.1 | 0.00 | 0.00 | 0.00 | 33 | 1011.5 |
| 20260506122430 | 14 | 155 | 9.7 | 12.9 | 0.00 | 0.00 | 0.00 | 35 | 1011.5 |
| 20260506121330 | 14 | 143 | 8.0 | 12.9 | 0.00 | 0.00 | 0.00 | 35 | 1011.5 |
| 20260506120230 | 14 | 136 | 6.4 | 12.9 | 0.00 | 0.00 | 0.00 | 36 | 1011.6 |
| 20260506115131 | 13 | 112 | 9.7 | 16.1 | 0.00 | 0.00 | 0.00 | 36 | 1011.7 |
| 20260506114030 | 13 | 80 | 11.3 | 22.5 | 0.00 | 0.00 | 0.00 | 34 | 1011.6 |
| 20260506112931 | 13 | 77 | 8.0 | 12.9 | 0.00 | 0.00 | 0.00 | 34 | 1011.7 |
| 20260506111831 | 13 | 139 | 9.7 | 16.1 | 0.00 | 0.00 | 0.00 | 35 | 1011.8 |
| 20260506110730 | 13 | 43 | 9.7 | 14.5 | 0.00 | 0.00 | 0.00 | 34 | 1011.7 |
| 20260506104529 | 13 | 119 | 11.3 | 17.7 | 0.00 | 0.00 | 0.00 | 35 | 1011.9 |
| 20260506102329 | 13 | 80 | 14.5 | 22.5 | 0.00 | 0.00 | 0.00 | 33 | 1011.9 |
| 20260506101229 | 13 | 138 | 11.3 | 22.5 | 0.00 | 0.00 | 0.00 | 34 | 1011.9 |
| 20260506100129 | 13 | 155 | 11.3 | 16.1 | 0.00 | 0.00 | 0.00 | 35 | 1011.9 |
| 20260506095029 | 13 | 157 | 11.3 | 16.1 | 0.00 | 0.00 | 0.00 | 35 | 1012.1 |
| 20260506093929 | 12 | 92 | 14.5 | 20.9 | 0.00 | 0.00 | 0.00 | 35 | 1012.1 |
| 20260506092829 | 12 | 128 | 14.5 | 20.9 | 0.00 | 0.00 | 0.00 | 34 | 1012.1 |
| 20260506091729 | 12 | 76 | 12.9 | 27.4 | 0.00 | 0.00 | 0.00 | 34 | 1012.2 |
| 20260506090629 | 12 | 55 | 12.9 | 17.7 | 0.00 | 0.00 | 0.00 | 37 | 1012.2 |
| 20260506085530 | 12 | 84 | 16.1 | 24.1 | 0.00 | 0.00 | 0.00 | 35 | 1012.3 |
| 20260506084429 | 12 | 117 | 11.3 | 16.1 | 0.00 | 0.00 | 0.00 | 35 | 1012.2 |
| 20260506082230 | 11 | 114 | 14.5 | 19.3 | 0.00 | 0.00 | 0.00 | 34 | 1012.4 |
| 20260506081129 | 11 | 129 | 17.7 | 17.7 | 0.00 | 0.00 | 0.00 | 33 | 1012.3 |
| 20260506072728 | 12 | 88 | 20.9 | 27.4 | 0.00 | 0.00 | 0.00 | 30 | 1012.6 |
| 20260506071630 | 11 | 59 | 19.3 | 32.2 | 0.00 | 0.00 | 0.00 | 30 | 1012.6 |